Tracking 25648 objects as of 16-May-2022
HD Live streaming from Space Station
objects crossing your sky now

COSMOS 2251 DEB

Track COSMOS 2251 DEB now!
10-day predictions


NORAD ID: 34010
Int'l Code: 1993-036GV
Perigee: 695.6 km
Apogee: 735.7 km
Inclination: 74.0 °
Period: 99.0 minutes
Semi major axis: 7086 km
RCS: 0.038 m2 (small)
Launch date: June 16, 1993
Source: Commonwealth of Independent States (former USSR) (CIS)
Launch site: PLESETSK MISSILE AND SPACE COMPLEX (PKMTR)

Note: This is SATELLITE DEBRIS
aabbcc
Your satellite tracking list
Your tracking list is empty




NASA's NSSDC Master Catalog

Two Line Element Set (TLE):
1 34010U 93036GV  22135.87448769  .00005790  00000-0  13353-2 0  9993
2 34010  74.0236 314.5403 0028329  51.3693 308.9999 14.55256491700379
Source of the keplerian elements: AFSPC